Stations météo

réclame
Mon MeteoGroup
Kinloss, Grande-Bretagne (3066): Température de l'air & dewpoint: 08.07.2020 08:00:00 - 14.07.2020 08:00:00 (BST)Kinloss, Grande-Bretagne (3066): Température de l'air -20cm & Température de l'air -100cm: 08.07.2020 08:00:00 - 14.07.2020 08:00:00 (BST)Kinloss, Grande-Bretagne (3066): Vitesse du vent & gusts: 08.07.2020 08:00:00 - 14.07.2020 08:00:00 (BST)Kinloss, Grande-Bretagne (3066): Direction du vent: 08.07.2020 08:00:00 - 14.07.2020 08:00:00 (BST)Kinloss, Grande-Bretagne (3066): reduced air pressure: 08.07.2020 08:00:00 - 14.07.2020 08:00:00 (BST)Kinloss, Grande-Bretagne (3066): visibility: 08.07.2020 08:00:00 - 14.07.2020 08:00:00 (BST)Kinloss, Grande-Bretagne (3066): Ensoleillement: 08.07.2020 08:00:00 - 14.07.2020 08:00:00 (BST)Kinloss, Grande-Bretagne (3066): Quantités de précipitations: 08.07.2020 08:00:00 - 14.07.2020 08:00:00 (BST)
Date & Time tt [°C] td [°C] tt -20cm [°C] tt -100cm [°C] ff [km/h] ff [knt] fx [km/h] fx [knt] dd ppp [hPa] vv [km] sd [min] rr [mm]
14.07.2020 08:00:00 12,7 8,8 - - 21 11 - - WSW 1013,3 35 0 0,0
14.07.2020 07:00:00 12,4 8,4 - - 21 11 - - WSW 1013,2 35 0 0,0
14.07.2020 06:00:00 12,2 8,1 - - 21 11 - - WSW 1013,3 40 0 0,0
14.07.2020 05:00:00 12,1 7,5 - - 22 12 - - WSW 1013,2 40 0 0,0
14.07.2020 04:00:00 12,1 7,2 - - 28 15 - - WSW 1013,2 35 0 0,0
14.07.2020 03:00:00 12,5 8,2 - - 24 13 - - WSW 1013,4 40 0 0,0
14.07.2020 02:00:00 12,4 8,9 - - 28 15 - - W 1013,4 35 0 0,0
14.07.2020 01:00:00 12,6 8,7 - - 18 10 - - WSW 1013,4 40 - 0,0
14.07.2020 00:00:00 13,3 8,8 - - 28 15 - - WSW 1013,4 40 0 0,0
13.07.2020 23:00:00 13,5 9,0 - - 26 14 - - WSW 1013,4 40 0 0,0
13.07.2020 22:00:00 14,0 8,6 - - 24 13 - - WSW 1013,3 40 0 0,0
13.07.2020 21:00:00 14,3 8,9 - - 24 13 - - W 1013,4 35 0 0,0
13.07.2020 20:00:00 14,6 8,8 - - 34 18 48 26 W 1013,1 40 18 0,0
13.07.2020 19:00:00 16,6 9,0 - - 35 19 48 26 W 1012,8 35 36 0,0
13.07.2020 18:00:00 17,6 9,9 - - 34 18 46 25 W 1012,9 35 42 0,0
13.07.2020 17:00:00 18,0 10,7 - - 29 16 - - WNW 1012,9 35 36 0,0
13.07.2020 16:00:00 18,3 11,4 - - 28 15 - - W 1012,8 35 18 0,0
13.07.2020 15:00:00 17,2 12,3 - - 21 11 - - W 1012,8 30 12 0,0
13.07.2020 14:00:00 17,5 12,9 - - 24 13 - - W 1012,9 10 24 0,0
13.07.2020 13:00:00 20,3 11,7 - - 28 15 - - WSW 1012,8 35 24 0,0
13.07.2020 12:00:00 19,0 11,3 - - 26 14 - - WSW 1013,2 35 12 0,0
13.07.2020 11:00:00 18,4 11,5 - - 22 12 - - WSW 1013,6 35 6 0,0
13.07.2020 10:00:00 18,0 12,1 14,4 12,7 18 10 - - WSW 1014,1 35 6 0,0
13.07.2020 09:00:00 16,6 12,0 - - 18 10 - - WSW 1014,5 40 0 0,0
13.07.2020 08:00:00 16,1 11,9 - - 18 10 - - WSW 1014,6 35 18 0,0
13.07.2020 07:00:00 15,6 12,9 - - 13 7 - - SW 1014,7 35 42 0,0
13.07.2020 06:00:00 14,1 12,7 - - 8 4 - - SW 1015,3 35 0 0,0
13.07.2020 05:00:00 13,2 11,6 - - 4 2 - - SSW 1015,4 35 0 0,0
13.07.2020 04:00:00 12,7 11,0 - - 5 3 - - W 1015,9 28 0 0,2
13.07.2020 03:00:00 13,5 11,5 - - 9 5 - - SW 1016,4 35 0 0,0
13.07.2020 02:00:00 13,5 10,7 - - 13 7 - - SSW 1016,5 40 0 0,0
13.07.2020 01:00:00 13,9 10,9 - - 9 5 - - SSW 1017,1 40 - 0,0
13.07.2020 00:00:00 13,4 10,7 - - 15 8 - - SSW 1017,7 35 0 0,0
12.07.2020 23:00:00 14,1 10,4 - - 9 5 - - S 1018,3 29 0 0,0
12.07.2020 22:00:00 17,7 8,4 - - 16 9 - - SSW 1018,5 35 0 0,0
12.07.2020 21:00:00 15,7 11,2 - - 5 3 - - E 1018,6 40 0 0,0
12.07.2020 20:00:00 15,9 11,0 - - 16 9 - - ESE 1019,0 40 0 0,0
12.07.2020 19:00:00 15,6 9,7 - - 22 12 - - E 1019,9 45 6 0,0
12.07.2020 18:00:00 16,6 9,0 - - 22 12 - - E 1020,6 40 0 0,0
12.07.2020 17:00:00 17,9 9,1 - - 16 9 - - E 1021,4 40 18 0,0
12.07.2020 16:00:00 18,1 7,7 - - 13 7 - - NNE 1021,9 40 60 0,0
12.07.2020 15:00:00 17,2 7,7 - - 13 7 - - NNE 1022,5 35 54 0,0
12.07.2020 14:00:00 17,7 8,0 - - 15 8 - - NW 1023,1 35 60 0,0
12.07.2020 13:00:00 16,6 7,4 - - 16 9 - - W 1023,7 35 42 0,0
12.07.2020 12:00:00 15,9 7,5 - - 16 9 - - SW 1024,1 35 6 0,0
12.07.2020 11:00:00 14,5 7,4 - - 22 12 - - W 1024,4 35 0 0,0
12.07.2020 10:00:00 14,2 7,4 14,4 12,7 18 10 - - WSW 1024,4 35 24 0,0
12.07.2020 09:00:00 14,3 7,3 - - 24 13 - - WSW 1024,4 40 60 0,0
12.07.2020 08:00:00 12,9 7,8 - - 18 10 - - WSW 1024,3 35 54 0,0
12.07.2020 07:00:00 12,1 7,6 - - 22 12 - - WSW 1023,8 35 12 0,0
12.07.2020 06:00:00 11,4 7,5 - - 24 13 - - WSW 1023,7 35 0 0,0
12.07.2020 05:00:00 11,0 6,8 - - 21 11 - - SW 1023,8 35 0 0,0
12.07.2020 04:00:00 10,9 6,7 - - 18 10 - - SW 1023,8 40 0 0,0
12.07.2020 03:00:00 11,1 7,4 - - 13 7 - - SW 1024,1 40 0 0,0
12.07.2020 02:00:00 11,9 7,7 - - 15 8 - - SW 1024,1 35 0 0,0
12.07.2020 01:00:00 12,0 8,0 - - 11 6 - - SSW 1024,4 35 - 0,0
12.07.2020 00:00:00 12,7 8,1 - - 26 14 - - WSW 1024,1 35 0 0,0
11.07.2020 23:00:00 12,9 8,3 - - 22 12 - - WSW 1024,4 40 0 0,0
11.07.2020 22:00:00 13,5 8,0 - - 21 11 - - SW 1023,9 40 0 0,0
11.07.2020 21:00:00 14,3 8,3 - - 18 10 - - WSW 1023,7 40 0 0,0
11.07.2020 20:00:00 14,7 8,5 - - 16 9 - - WSW 1023,4 40 0 0,0
11.07.2020 19:00:00 14,8 9,1 - - 24 13 - - W 1023,3 40 0 0,0
11.07.2020 18:00:00 15,5 8,9 - - 28 15 - - W 1023,2 35 6 0,0
11.07.2020 17:00:00 16,1 9,5 - - 31 17 - - W 1023,0 40 12 0,0
11.07.2020 16:00:00 16,6 7,9 - - 29 16 46 25 W 1022,8 35 18 0,0
11.07.2020 15:00:00 17,8 8,4 - - 39 21 50 27 W 1022,5 35 60 0,0
11.07.2020 14:00:00 17,0 8,4 - - 31 17 48 26 W 1022,4 35 30 0,0
11.07.2020 13:00:00 16,8 9,8 - - 28 15 - - W 1022,3 35 24 0,0
11.07.2020 12:00:00 12,9 9,7 - - 28 15 - - WNW 1022,2 18 18 0,0
11.07.2020 11:00:00 14,7 9,3 - - 24 13 - - W 1021,8 40 24 0,0
11.07.2020 10:00:00 13,7 8,1 14,7 12,7 26 14 - - WSW 1021,6 35 12 0,0
11.07.2020 09:00:00 13,0 7,8 - - 24 13 - - WSW 1021,3 35 30 0,0
11.07.2020 08:00:00 12,2 7,9 - - 18 10 - - WSW 1021,1 30 6 0,0
11.07.2020 07:00:00 11,5 7,3 - - 24 13 - - WSW 1020,6 35 0 0,0
11.07.2020 06:00:00 11,0 6,8 - - 21 11 - - SW 1020,4 35 0 0,0
11.07.2020 05:00:00 11,3 7,3 - - 18 10 - - WSW 1020,3 35 0 0,0
11.07.2020 04:00:00 11,0 8,1 - - 18 10 - - WSW 1020,2 30 0 0,0
11.07.2020 03:00:00 11,8 8,4 - - 24 13 - - W 1020,1 30 0 0,0
11.07.2020 02:00:00 10,8 8,4 - - 11 6 - - SW 1019,9 27 0 0,2
11.07.2020 01:00:00 11,5 9,0 - - 13 7 - - SW 1019,8 30 - 0,0
11.07.2020 00:00:00 12,1 9,3 - - 13 7 - - WSW 1019,7 30 0 0,0
10.07.2020 23:00:00 12,5 9,1 - - 15 8 - - WSW 1019,3 30 0 0,0
10.07.2020 22:00:00 12,2 7,8 - - 21 11 - - WNW 1018,8 29 0 0,0
10.07.2020 21:00:00 13,5 8,2 - - 18 10 - - WNW 1018,1 30 6 0,0
10.07.2020 20:00:00 13,8 8,6 - - 16 9 - - NW 1017,9 35 0 0,0
10.07.2020 19:00:00 14,3 8,5 - - 15 8 - - W 1017,6 10 6 0,0
10.07.2020 18:00:00 14,4 9,0 - - 18 10 - - W 1017,1 35 6 0,0
10.07.2020 17:00:00 14,7 8,6 - - 28 15 - - NW 1016,7 35 30 0,0
10.07.2020 16:00:00 14,7 10,8 - - 21 11 - - WNW 1016,6 30 6 0,0
10.07.2020 15:00:00 14,6 9,1 - - 18 10 - - NNW 1016,4 35 24 0,0
10.07.2020 14:00:00 15,3 9,7 - - 26 14 - - NW 1016,2 35 30 0,0
10.07.2020 13:00:00 11,8 9,7 - - 21 11 - - NW 1016,2 9 18 0,0
10.07.2020 12:00:00 12,9 8,7 - - 22 12 - - W 1015,7 14 6 -
10.07.2020 11:00:00 14,3 7,6 - - 18 10 - - W 1015,6 30 24 -
10.07.2020 10:00:00 13,6 8,0 15,0 12,7 26 14 - - W 1015,5 10 42 0,0
10.07.2020 09:00:00 13,1 9,6 - - 16 9 - - W 1015,4 35 60 0,0
10.07.2020 08:00:00 11,6 10,0 - - 16 9 - - WSW 1015,3 29 18 0,0
10.07.2020 07:00:00 10,6 9,3 - - 13 7 - - WSW 1015,2 26 0 0,0
10.07.2020 06:00:00 10,2 9,5 - - 13 7 - - WSW 1015,0 23 0 0,2
10.07.2020 05:00:00 9,5 9,1 - - 9 5 - - SW 1014,9 18 0 0,0
10.07.2020 04:00:00 9,6 9,1 - - 9 5 - - SW 1014,8 19 0 0,0
10.07.2020 03:00:00 10,1 9,5 - - 13 7 - - SW 1014,9 7 0 0,0
10.07.2020 02:00:00 10,6 9,4 - - 11 6 - - WSW 1014,9 24 0 0,0
10.07.2020 01:00:00 11,0 9,7 - - 5 3 - - SW 1015,2 27 - 0,0
10.07.2020 00:00:00 11,2 8,7 - - 2 1 - - ENE 1015,0 30 0 0,0
09.07.2020 23:00:00 11,2 8,8 - - 8 4 - - WNW 1015,0 30 0 0,0
09.07.2020 22:00:00 11,7 8,6 - - 9 5 - - NNE 1014,7 35 0 0,0
09.07.2020 21:00:00 12,8 8,5 - - 11 6 - - NNE 1014,4 30 0 0,0
09.07.2020 20:00:00 13,2 9,0 - - 15 8 - - NE 1014,2 30 0 0,0
09.07.2020 19:00:00 14,3 8,3 - - 13 7 - - E 1014,1 30 24 0,0
09.07.2020 18:00:00 15,0 8,1 - - 18 10 - - ENE 1013,9 30 6 0,0
09.07.2020 17:00:00 15,0 9,3 - - 16 9 - - ENE 1014,2 10 24 0,0
09.07.2020 16:00:00 14,6 7,9 - - 22 12 - - NNE 1014,2 35 30 0,0
09.07.2020 15:00:00 15,8 6,1 - - 15 8 - - N 1014,2 35 60 0,0
09.07.2020 14:00:00 16,5 8,1 - - 11 6 - - NNE 1014,4 30 36 0,0
09.07.2020 13:00:00 15,8 7,6 - - 8 4 - - N 1014,6 35 48 0,0
09.07.2020 12:00:00 14,8 9,1 - - 9 5 - - N 1014,7 30 60 0,0
09.07.2020 11:00:00 14,0 10,0 - - 9 5 - - NNW 1014,8 30 12 0,0
09.07.2020 10:00:00 11,5 9,2 14,7 12,7 15 8 - - NW 1014,8 21 0 0,2
09.07.2020 09:00:00 12,0 9,2 - - 13 7 - - NW 1014,6 26 0 0,0
09.07.2020 08:00:00 12,6 10,2 - - 11 6 - - NW 1014,2 24 0 0,0
09.07.2020 07:00:00 11,5 9,5 - - 13 7 - - NW 1014,0 23 12 0,0
09.07.2020 06:00:00 11,1 9,8 - - 15 8 - - NW 1013,7 21 0 0,0
09.07.2020 05:00:00 11,1 10,0 - - 11 6 - - SW 1013,5 20 0 0,0
09.07.2020 04:00:00 11,2 10,4 - - 8 4 - - SSW 1013,6 18 0 0,0
09.07.2020 03:00:00 11,7 10,8 - - 9 5 - - WSW 1013,8 16 0 0,0
09.07.2020 02:00:00 11,5 10,2 - - 4 2 - - SSW 1013,8 17 0 0,0
09.07.2020 01:00:00 11,6 9,5 - - 5 3 - - ESE 1013,9 25 - 0,0
09.07.2020 00:00:00 11,5 9,5 - - 9 5 - - ENE 1014,1 25 0 0,0
08.07.2020 23:00:00 12,4 9,4 - - 11 6 - - E 1014,1 25 0 0,0
08.07.2020 22:00:00 13,1 9,4 - - 11 6 - - E 1014,1 26 0 0,0
08.07.2020 21:00:00 14,0 9,8 - - 15 8 - - E 1013,9 27 0 0,0
08.07.2020 20:00:00 14,7 9,1 - - 16 9 - - ENE 1014,1 26 18 0,0
08.07.2020 19:00:00 14,8 6,7 - - 22 12 - - ENE 1014,3 29 36 0,0
08.07.2020 18:00:00 16,1 6,1 - - 21 11 - - ENE 1014,4 30 54 0,0
08.07.2020 17:00:00 15,5 5,4 - - 18 10 - - ENE 1015,1 30 18 0,0
08.07.2020 16:00:00 15,7 5,9 - - 21 11 - - ENE 1015,4 30 54 0,2
08.07.2020 15:00:00 14,9 5,0 - - 21 11 - - NNE 1015,6 30 24 0,0
08.07.2020 14:00:00 15,8 5,7 - - 15 8 - - NNE 1015,8 30 60 0,0
08.07.2020 13:00:00 13,8 3,7 - - 15 8 - - NNE 1016,2 30 54 0,0
08.07.2020 12:00:00 13,4 5,1 - - 15 8 - - NNE 1016,4 28 60 0,0
08.07.2020 11:00:00 13,5 5,3 - - 11 6 - - N 1016,8 30 60 0,0
08.07.2020 10:00:00 12,7 5,5 14,7 12,7 8 4 - - N 1016,7 29 60 0,0
08.07.2020 09:00:00 11,9 6,8 - - 8 4 - - N 1016,6 26 60 0,0
08.07.2020 08:00:00 11,4 7,2 - - 8 4 - - N 1016,5 26 60 0,0

tt = Température de l'air
td = dewpoint
tt -20cm = Température de l'air -20cm
tt -100cm = Température de l'air -100cm
ff = Vitesse du vent
fx = gusts
dd = Direction du vent
ppp = reduced air pressure
vv = visibility
sd = Ensoleillement
rr = Quantités de précipitations

stations d'obs. à proximité